| time (UTC) | temp F | wind direction | speed knots | gust knots | rain 1hr in | rain 24hr in | rain mn in | humidity % | barometer mb |
| 20260510180201 | 69 | 206 | 8.7 | 13.0 | 0.00 | 0.00 | 0.00 | 50 | 1021.1 |
| 20260510175656 | 68 | 229 | 7.8 | 7.8 | 0.00 | 0.00 | 0.00 | 52 | 1020.6 |
| 20260510175152 | 68 | 234 | 7.8 | 8.7 | 0.00 | 0.00 | 0.00 | 50 | 1020.5 |
| 20260510174650 | 68 | 221 | 7.0 | 7.8 | 0.00 | 0.00 | 0.00 | 55 | 1020.5 |
| 20260510174148 | 68 | 214 | 7.8 | 9.6 | 0.00 | 0.00 | 0.00 | 54 | 1020.8 |
| 20260510173643 | 69 | 237 | 6.1 | 7.0 | 0.00 | 0.00 | 0.00 | 58 | 1020.6 |
| 20260510173139 | 68 | 249 | 6.1 | 7.8 | 0.00 | 0.00 | 0.00 | 56 | 1020.7 |
| 20260510172635 | 68 | 212 | 6.1 | 7.0 | 0.00 | 0.00 | 0.00 | 56 | 1020.4 |
| 20260510172131 | 68 | 230 | 7.8 | 9.6 | 0.00 | 0.00 | 0.00 | 57 | 1020.7 |
| 20260510171628 | 67 | 223 | 11.3 | 13.9 | 0.00 | 0.00 | 0.00 | 57 | 1020.4 |
| 20260510171126 | 67 | 224 | 9.6 | 11.3 | 0.00 | 0.00 | 0.00 | 56 | 1020.4 |
| 20260510170622 | 67 | 202 | 9.6 | 11.3 | 0.00 | 0.00 | 0.00 | 58 | 1020.4 |
| 20260510170118 | 67 | 235 | 8.7 | 11.3 | 0.00 | 0.00 | 0.00 | 59 | 1020.4 |
| 20260510165614 | 67 | 216 | 7.8 | 12.2 | 0.00 | 0.00 | 0.00 | 60 | 1020.5 |
| 20260510165110 | 67 | 268 | 9.6 | 11.3 | 0.00 | 0.00 | 0.00 | 60 | 1020.5 |
| 20260510164608 | 66 | 236 | 11.3 | 13.9 | 0.00 | 0.00 | 0.00 | 59 | 1020.3 |
| 20260510164104 | 66 | 254 | 11.3 | 14.8 | 0.00 | 0.00 | 0.00 | 59 | 1020.4 |
| 20260510163559 | 66 | 223 | 7.8 | 7.8 | 0.00 | 0.00 | 0.00 | 60 | 1020.2 |
| 20260510163056 | 66 | 249 | 7.0 | 7.8 | 0.00 | 0.00 | 0.00 | 61 | 1020.3 |
| 20260510162551 | 66 | 222 | 7.0 | 7.8 | 0.00 | 0.00 | 0.00 | 62 | 1020.3 |
| 20260510162047 | 65 | 256 | 9.6 | 11.3 | 0.00 | 0.00 | 0.00 | 61 | 1020.4 |
| 20260510161538 | 66 | 227 | 7.8 | 7.8 | 0.00 | 0.00 | 0.00 | 61 | 1020.2 |
| 20260510161035 | 66 | 238 | 5.2 | 6.1 | 0.00 | 0.00 | 0.00 | 63 | 1020.2 |
| 20260510160532 | 66 | 246 | 9.6 | 11.3 | 0.00 | 0.00 | 0.00 | 61 | 1020.0 |
| 20260510160031 | 66 | 237 | 9.6 | 11.3 | 0.00 | 0.00 | 0.00 | 64 | 1020.1 |
| 20260510155528 | 66 | 232 | 7.0 | 7.0 | 0.00 | 0.00 | 0.00 | 65 | 1019.6 |
| 20260510155025 | 65 | 228 | 7.0 | 7.8 | 0.00 | 0.00 | 0.00 | 66 | 1019.7 |
| 20260510154520 | 65 | 211 | 8.7 | 9.6 | 0.00 | 0.00 | 0.00 | 66 | 1019.7 |
| 20260510154015 | 65 | 295 | 8.7 | 9.6 | 0.00 | 0.00 | 0.00 | 67 | 1019.6 |
| 20260510153510 | 64 | 235 | 8.7 | 9.6 | 0.00 | 0.00 | 0.00 | 67 | 1019.4 |
| 20260510153007 | 65 | 243 | 8.7 | 12.2 | 0.00 | 0.00 | 0.00 | 67 | 1019.5 |
| 20260510152504 | 64 | 217 | 7.0 | 7.0 | 0.00 | 0.00 | 0.00 | 69 | 1019.6 |
| 20260510152000 | 64 | 239 | 7.8 | 9.6 | 0.00 | 0.00 | 0.00 | 69 | 1019.9 |
| 20260510151458 | 64 | 233 | 9.6 | 11.3 | 0.00 | 0.00 | 0.00 | 69 | 1019.7 |
| 20260510150954 | 64 | 215 | 7.0 | 7.8 | 0.00 | 0.00 | 0.00 | 70 | 1019.6 |
| 20260510150450 | 64 | 221 | 10.4 | 11.3 | 0.00 | 0.00 | 0.00 | 69 | 1019.8 |
| 20260510145946 | 64 | 226 | 7.0 | 8.7 | 0.00 | 0.00 | 0.00 | 70 | 1019.8 |
| 20260510145442 | 64 | 245 | 6.1 | 7.0 | 0.00 | 0.00 | 0.00 | 70 | 1019.7 |
| 20260510144939 | 64 | 248 | 6.1 | 7.0 | 0.00 | 0.00 | 0.00 | 71 | 1019.6 |
| 20260510144436 | 64 | 223 | 7.0 | 7.8 | 0.00 | 0.00 | 0.00 | 71 | 1019.8 |
| 20260510143931 | 64 | 267 | 7.8 | 7.8 | 0.00 | 0.00 | 0.00 | 70 | 1019.7 |
| 20260510143427 | 64 | 234 | 7.8 | 8.7 | 0.00 | 0.00 | 0.00 | 70 | 1019.6 |
| 20260510142924 | 64 | 227 | 7.8 | 8.7 | 0.00 | 0.00 | 0.00 | 70 | 1019.9 |
| 20260510142421 | 64 | 237 | 7.0 | 8.7 | 0.00 | 0.00 | 0.00 | 70 | 1019.6 |
| 20260510141917 | 64 | 256 | 9.6 | 11.3 | 0.00 | 0.00 | 0.00 | 70 | 1019.6 |
| 20260510141415 | 64 | 243 | 8.7 | 8.7 | 0.00 | 0.00 | 0.00 | 71 | 1019.7 |
| 20260510140912 | 64 | 229 | 10.4 | 12.2 | 0.00 | 0.00 | 0.00 | 71 | 1019.5 |
| 20260510140408 | 64 | 227 | 7.8 | 8.7 | 0.00 | 0.00 | 0.00 | 70 | 1019.4 |
| 20260510135901 | 64 | 215 | 10.4 | 13.0 | 0.00 | 0.00 | 0.00 | 70 | 1019.3 |
| 20260510135357 | 64 | 240 | 7.0 | 7.8 | 0.00 | 0.00 | 0.00 | 71 | 1019.3 |
| 20260510134855 | 64 | 238 | 10.4 | 12.2 | 0.00 | 0.00 | 0.00 | 69 | 1019.0 |
| 20260510134351 | 64 | 231 | 10.4 | 11.3 | 0.00 | 0.00 | 0.00 | 70 | 1019.2 |
| 20260510133848 | 63 | 240 | 7.8 | 11.3 | 0.00 | 0.00 | 0.00 | 73 | 1018.9 |
| 20260510133344 | 63 | 231 | 7.0 | 7.8 | 0.00 | 0.00 | 0.00 | 72 | 1018.8 |
| 20260510132839 | 63 | 217 | 5.2 | 6.1 | 0.00 | 0.00 | 0.00 | 74 | 1018.7 |
| 20260510132338 | 63 | 219 | 5.2 | 6.1 | 0.00 | 0.00 | 0.00 | 74 | 1018.7 |
| 20260510131834 | 63 | 230 | 7.0 | 7.8 | 0.00 | 0.00 | 0.00 | 76 | 1018.6 |
| 20260510131332 | 62 | 216 | 6.1 | 7.0 | 0.00 | 0.00 | 0.00 | 77 | 1018.6 |
| 20260510130828 | 62 | 214 | 7.0 | 7.8 | 0.00 | 0.00 | 0.00 | 77 | 1018.6 |
| 20260510130325 | 62 | 269 | 6.1 | 7.8 | 0.00 | 0.00 | 0.00 | 78 | 1018.1 |
| 20260510125822 | 61 | 240 | 7.0 | 7.8 | 0.00 | 0.00 | 0.00 | 79 | 1018.2 |
| 20260510125318 | 61 | 233 | 7.8 | 9.6 | 0.00 | 0.00 | 0.00 | 79 | 1018.2 |
| 20260510124815 | 60 | 234 | 6.1 | 7.0 | 0.00 | 0.00 | 0.00 | 79 | 1018.1 |
| 20260510124312 | 60 | 246 | 4.3 | 7.0 | 0.00 | 0.00 | 0.00 | 80 | 1017.9 |
| 20260510123807 | 60 | 230 | 6.1 | 7.0 | 0.00 | 0.00 | 0.00 | 80 | 1017.9 |
| 20260510123303 | 60 | 228 | 7.8 | 8.7 | 0.00 | 0.00 | 0.00 | 80 | 1017.8 |
| 20260510122759 | 60 | 280 | 7.0 | 7.0 | 0.00 | 0.00 | 0.00 | 80 | 1017.7 |
| 20260510122256 | 59 | 215 | 9.6 | 9.6 | 0.00 | 0.00 | 0.00 | 79 | 1017.7 |
| 20260510121752 | 59 | 217 | 3.5 | 4.3 | 0.00 | 0.00 | 0.00 | 80 | 1017.6 |
| 20260510121250 | 58 | 209 | 4.3 | 5.2 | 0.00 | 0.00 | 0.00 | 81 | 1017.6 |
| 20260510120747 | 58 | 233 | 4.3 | 5.2 | 0.00 | 0.00 | 0.00 | 80 | 1017.7 |
| 20260510120244 | 58 | 226 | 5.2 | 6.1 | 0.00 | 0.00 | 0.00 | 80 | 1017.5 |
| 20260510115739 | 58 | 249 | 4.3 | 5.2 | 0.00 | 0.00 | 0.00 | 80 | 1017.6 |
| 20260510115238 | 58 | 245 | 7.0 | 7.8 | 0.00 | 0.00 | 0.00 | 79 | 1017.3 |
| 20260510114732 | 58 | 234 | 5.2 | 6.1 | 0.00 | 0.00 | 0.00 | 79 | 1017.1 |
| 20260510114230 | 57 | 241 | 4.3 | 5.2 | 0.00 | 0.00 | 0.00 | 77 | 1017.2 |
| 20260510113725 | 57 | 228 | 3.5 | 4.3 | 0.00 | 0.00 | 0.00 | 79 | 1017.3 |
| 20260510113223 | 58 | 216 | 3.5 | 4.3 | 0.00 | 0.00 | 0.00 | 78 | 1017.1 |
| 20260510112718 | 57 | 227 | 4.3 | 4.3 | 0.00 | 0.00 | 0.00 | 80 | 1017.2 |
| 20260510112216 | 57 | 244 | 3.5 | 4.3 | 0.00 | 0.00 | 0.00 | 78 | 1016.9 |
| 20260510111711 | 57 | 246 | 4.3 | 4.3 | 0.00 | 0.00 | 0.00 | 79 | 1016.8 |
| 20260510111209 | 55 | 208 | 4.3 | 5.2 | 0.00 | 0.00 | 0.00 | 82 | 1016.8 |
| 20260510110709 | 55 | 219 | 4.3 | 4.3 | 0.00 | 0.00 | 0.00 | 84 | 1017.0 |
| 20260510110207 | 55 | 227 | 0.0 | 0.0 | 0.00 | 0.00 | 0.00 | 82 | 1016.7 |
| 20260510105706 | 54 | 219 | 2.6 | 2.6 | 0.00 | 0.00 | 0.00 | 84 | 1016.6 |
| 20260510105201 | 54 | 225 | 0.0 | 0.0 | 0.00 | 0.00 | 0.00 | 86 | 1016.6 |
| 20260510104658 | 55 | 182 | 0.9 | 0.9 | 0.00 | 0.00 | 0.00 | 84 | 1016.7 |
| 20260510104155 | 55 | 175 | 0.0 | 0.0 | 0.00 | 0.00 | 0.00 | 84 | 1016.6 |
| 20260510103652 | 55 | 197 | 0.0 | 0.0 | 0.00 | 0.00 | 0.00 | 84 | 1016.6 |
| 20260510103148 | 55 | 206 | 0.0 | 0.0 | 0.00 | 0.00 | 0.00 | 85 | 1016.6 |
| 20260510102648 | 56 | 216 | 0.0 | 0.0 | 0.00 | 0.00 | 0.00 | 83 | 1016.3 |
| 20260510102145 | 58 | 227 | 0.0 | 0.0 | 0.00 | 0.00 | 0.00 | 79 | 1016.4 |
| 20260510101642 | 57 | 292 | 0.0 | 0.0 | 0.00 | 0.00 | 0.00 | 80 | 1016.4 |
| 20260510101141 | 57 | 339 | 0.0 | 0.0 | 0.00 | 0.00 | 0.00 | 78 | 1016.2 |
| 20260510100636 | 57 | 15 | 0.0 | 0.0 | 0.00 | 0.00 | 0.00 | 79 | 1016.2 |
| 20260510100134 | 57 | 172 | 0.0 | 0.0 | 0.00 | 0.00 | 0.00 | 79 | 1016.1 |
| 20260510095629 | 55 | 208 | 0.0 | 0.0 | 0.00 | 0.00 | 0.00 | 82 | 1015.9 |
| 20260510095125 | 54 | 213 | 0.0 | 0.0 | 0.00 | 0.00 | 0.00 | 85 | 1015.9 |
| 20260510094623 | 54 | 212 | 0.0 | 0.0 | 0.00 | 0.00 | 0.00 | 86 | 1015.8 |
| 20260510094119 | 54 | 229 | 2.6 | 2.6 | 0.00 | 0.00 | 0.00 | 86 | 1015.9 |
| 20260510093616 | 55 | 215 | 0.0 | 0.0 | 0.00 | 0.00 | 0.00 | 85 | 1015.9 |
| 20260510093113 | 56 | 213 | 0.0 | 0.0 | 0.00 | 0.00 | 0.00 | 83 | 1015.9 |
| 20260510092609 | 57 | 200 | 0.0 | 0.0 | 0.00 | 0.00 | 0.00 | 83 | 1015.9 |
| 20260510092109 | 57 | 197 | 0.0 | 0.0 | 0.00 | 0.00 | 0.00 | 81 | 1015.9 |
| 20260510091606 | 57 | 233 | 1.7 | 1.7 | 0.00 | 0.00 | 0.00 | 81 | 1015.7 |
| 20260510091102 | 65 | 223 | 1.7 | 1.7 | 0.00 | 0.00 | 0.00 | 69 | 1015.7 |
| 20260510090559 | 64 | 354 | 2.6 | 4.3 | 0.00 | 0.00 | 0.00 | 63 | 1015.6 |
| 20260510090055 | 60 | 16 | 0.0 | 0.0 | 0.00 | 0.00 | 0.00 | 67 | 1015.3 |
| 20260510085550 | 59 | 185 | 0.0 | 0.0 | 0.00 | 0.00 | 0.00 | 74 | 1015.6 |
| 20260510085046 | 60 | 197 | 0.0 | 0.0 | 0.00 | 0.00 | 0.00 | 73 | 1015.6 |
| 20260510084543 | 60 | 203 | 0.0 | 0.0 | 0.00 | 0.00 | 0.00 | 70 | 1015.4 |
| 20260510084040 | 60 | 200 | 0.9 | 0.9 | 0.00 | 0.00 | 0.00 | 71 | 1015.4 |
| 20260510083536 | 60 | 208 | 0.0 | 0.0 | 0.00 | 0.00 | 0.00 | 75 | 1015.2 |
| 20260510083032 | 59 | 333 | 2.6 | 2.6 | 0.00 | 0.00 | 0.00 | 69 | 1015.2 |
| 20260510082529 | 59 | 202 | 1.7 | 1.7 | 0.00 | 0.00 | 0.00 | 74 | 1015.2 |
| 20260510082025 | 59 | 204 | 0.0 | 0.0 | 0.00 | 0.00 | 0.00 | 77 | 1015.4 |
| 20260510081520 | 58 | 189 | 0.0 | 0.0 | 0.00 | 0.00 | 0.00 | 76 | 1015.4 |
| 20260510081016 | 57 | 182 | 0.0 | 0.0 | 0.00 | 0.00 | 0.00 | 81 | 1015.6 |
| 20260510080515 | 57 | 182 | 0.0 | 0.0 | 0.00 | 0.00 | 0.00 | 82 | 1015.5 |
| 20260510080012 | 56 | 176 | 0.0 | 0.0 | 0.00 | 0.00 | 0.00 | 81 | 1015.7 |
| 20260510075510 | 58 | 206 | 0.0 | 0.0 | 0.00 | 0.00 | 0.00 | 82 | 1015.6 |
| 20260510075006 | 58 | 210 | 0.0 | 0.0 | 0.00 | 0.00 | 0.00 | 78 | 1015.5 |
| 20260510074504 | 57 | 183 | 0.0 | 0.0 | 0.00 | 0.00 | 0.00 | 77 | 1015.8 |
| 20260510073959 | 57 | 224 | 0.0 | 0.0 | 0.00 | 0.00 | 0.00 | 80 | 1015.5 |
| 20260510073455 | 57 | 53 | 0.0 | 0.0 | 0.00 | 0.00 | 0.00 | 77 | 1015.5 |
| 20260510072952 | 57 | 190 | 0.0 | 0.0 | 0.00 | 0.00 | 0.00 | 78 | 1015.4 |
| 20260510072449 | 56 | 197 | 0.0 | 0.0 | 0.00 | 0.00 | 0.00 | 81 | 1015.6 |
| 20260510071944 | 56 | 182 | 0.0 | 0.0 | 0.00 | 0.00 | 0.00 | 81 | 1015.4 |
| 20260510071441 | 58 | 205 | 0.0 | 0.0 | 0.00 | 0.00 | 0.00 | 79 | 1015.5 |
| 20260510070939 | 59 | 187 | 0.0 | 0.0 | 0.00 | 0.00 | 0.00 | 74 | 1015.5 |
| 20260510070436 | 59 | 146 | 0.0 | 0.0 | 0.00 | 0.00 | 0.00 | 75 | 1015.4 |
| 20260510065932 | 58 | 294 | 0.0 | 0.0 | 0.00 | 0.00 | 0.00 | 75 | 1015.5 |
| 20260510065429 | 58 | 176 | 0.0 | 0.0 | 0.00 | 0.00 | 0.00 | 75 | 1015.5 |
| 20260510064924 | 57 | 212 | 0.0 | 0.0 | 0.00 | 0.00 | 0.00 | 78 | 1015.2 |
| 20260510064422 | 57 | 230 | 0.0 | 0.0 | 0.00 | 0.00 | 0.00 | 78 | 1015.3 |
| 20260510063919 | 54 | 225 | 2.6 | 2.6 | 0.00 | 0.00 | 0.00 | 85 | 1015.6 |
| 20260510063415 | 54 | 221 | 3.5 | 4.3 | 0.00 | 0.00 | 0.00 | 85 | 1015.4 |
| 20260510062913 | 56 | 225 | 0.0 | 0.0 | 0.00 | 0.00 | 0.00 | 81 | 1015.4 |
| 20260510062408 | 59 | 219 | 0.0 | 0.0 | 0.00 | 0.00 | 0.00 | 77 | 1015.1 |
| 20260510061904 | 63 | 164 | 0.0 | 0.0 | 0.00 | 0.00 | 0.00 | 63 | 1015.2 |
| 20260510061400 | 62 | 44 | 0.0 | 0.0 | 0.00 | 0.00 | 0.00 | 64 | 1015.2 |
| 20260510060856 | 60 | 150 | 0.0 | 0.0 | 0.00 | 0.00 | 0.00 | 69 | 1014.9 |
| 20260510060353 | 60 | 174 | 0.0 | 0.0 | 0.00 | 0.00 | 0.00 | 71 | 1014.8 |
| 20260510055849 | 61 | 176 | 0.0 | 0.0 | 0.00 | 0.00 | 0.00 | 72 | 1015.1 |
| 20260510055349 | 65 | 90 | 0.0 | 0.0 | 0.00 | 0.00 | 0.00 | 62 | 1015.0 |
| 20260510054843 | 64 | 79 | 0.0 | 0.0 | 0.00 | 0.00 | 0.00 | 60 | 1015.0 |
| 20260510054338 | 63 | 308 | 0.0 | 0.0 | 0.00 | 0.00 | 0.00 | 62 | 1015.1 |
| 20260510053833 | 60 | 237 | 0.0 | 0.0 | 0.00 | 0.00 | 0.00 | 71 | 1015.2 |
| 20260510053329 | 60 | 180 | 0.0 | 0.0 | 0.00 | 0.00 | 0.00 | 75 | 1015.2 |
| 20260510052826 | 63 | 177 | 0.0 | 0.0 | 0.00 | 0.00 | 0.00 | 71 | 1015.3 |
| 20260510052321 | 65 | 51 | 0.0 | 0.0 | 0.00 | 0.00 | 0.00 | 58 | 1014.9 |
| 20260510051817 | 64 | 18 | 0.0 | 0.0 | 0.00 | 0.00 | 0.00 | 59 | 1015.2 |
| 20260510051314 | 63 | 244 | 0.0 | 0.0 | 0.00 | 0.00 | 0.00 | 64 | 1015.1 |
| 20260510050812 | 62 | 268 | 0.0 | 0.0 | 0.00 | 0.00 | 0.00 | 69 | 1015.0 |
| 20260510050308 | 61 | 179 | 0.0 | 0.0 | 0.00 | 0.00 | 0.00 | 69 | 1014.9 |
| 20260510045805 | 60 | 219 | 0.0 | 0.0 | 0.00 | 0.01 | 0.01 | 73 | 1014.8 |
| 20260510045305 | 61 | 228 | 0.0 | 0.0 | 0.00 | 0.01 | 0.01 | 73 | 1015.0 |
| 20260510044800 | 68 | 230 | 0.0 | 0.0 | 0.00 | 0.01 | 0.01 | 65 | 1014.8 |
| 20260510044256 | 68 | 42 | 0.0 | 0.0 | 0.00 | 0.01 | 0.01 | 54 | 1015.0 |
| 20260510043752 | 68 | 18 | 0.0 | 0.0 | 0.00 | 0.01 | 0.01 | 55 | 1015.0 |
| 20260510043249 | 68 | 36 | 0.0 | 0.9 | 0.00 | 0.01 | 0.01 | 56 | 1015.1 |
| 20260510042746 | 68 | 29 | 0.0 | 0.0 | 0.00 | 0.01 | 0.01 | 56 | 1014.9 |
| 20260510042241 | 68 | 27 | 0.0 | 0.0 | 0.00 | 0.01 | 0.01 | 56 | 1014.9 |
| 20260510041738 | 67 | 32 | 0.0 | 0.0 | 0.00 | 0.01 | 0.01 | 57 | 1014.7 |
| 20260510041236 | 67 | 25 | 0.0 | 0.0 | 0.00 | 0.01 | 0.01 | 58 | 1014.6 |
| 20260510040733 | 68 | 6 | 0.0 | 0.0 | 0.00 | 0.01 | 0.01 | 57 | 1014.5 |
| 20260510040230 | 68 | 359 | 0.0 | 0.0 | 0.00 | 0.01 | 0.01 | 56 | 1014.6 |
| 20260510035725 | 68 | 343 | 0.0 | 0.0 | 0.00 | 0.01 | 0.01 | 57 | 1014.3 |
| 20260510035221 | 68 | 344 | 0.0 | 0.0 | 0.00 | 0.01 | 0.01 | 57 | 1014.5 |
| 20260510034717 | 68 | 347 | 0.0 | 0.0 | 0.00 | 0.01 | 0.01 | 57 | 1014.4 |
| 20260510034215 | 66 | 8 | 0.0 | 0.0 | 0.00 | 0.01 | 0.01 | 58 | 1014.5 |
| 20260510033711 | 65 | 303 | 0.0 | 0.0 | 0.00 | 0.01 | 0.01 | 61 | 1014.5 |
| 20260510033209 | 65 | 203 | 0.0 | 0.0 | 0.00 | 0.01 | 0.01 | 63 | 1014.5 |
| 20260510032705 | 63 | 214 | 0.0 | 0.0 | 0.00 | 0.01 | 0.01 | 65 | 1014.7 |
| 20260510032201 | 64 | 203 | 0.0 | 0.0 | 0.00 | 0.01 | 0.01 | 66 | 1014.4 |
| 20260510031655 | 64 | 197 | 0.0 | 0.0 | 0.00 | 0.01 | 0.01 | 66 | 1014.5 |
| 20260510031152 | 64 | 175 | 0.0 | 0.0 | 0.00 | 0.01 | 0.01 | 65 | 1014.4 |
| 20260510030646 | 65 | 177 | 0.0 | 0.0 | 0.00 | 0.01 | 0.01 | 64 | 1014.2 |
| 20260510030144 | 67 | 179 | 0.0 | 0.0 | 0.00 | 0.01 | 0.01 | 58 | 1014.4 |
| 20260510025641 | 67 | 189 | 0.0 | 0.0 | 0.00 | 0.01 | 0.01 | 58 | 1014.2 |
| 20260510025139 | 67 | 187 | 0.0 | 0.0 | 0.00 | 0.01 | 0.01 | 58 | 1013.9 |
| 20260510024635 | 67 | 200 | 0.0 | 0.0 | 0.00 | 0.01 | 0.01 | 58 | 1013.9 |
| 20260510024132 | 67 | 292 | 0.0 | 0.0 | 0.00 | 0.01 | 0.01 | 57 | 1013.7 |
| 20260510023628 | 67 | 187 | 0.0 | 0.0 | 0.00 | 0.01 | 0.01 | 57 | 1013.8 |
| 20260510023125 | 65 | 183 | 0.0 | 0.0 | 0.00 | 0.01 | 0.01 | 58 | 1013.8 |
| 20260510022625 | 66 | 192 | 0.0 | 0.0 | 0.00 | 0.01 | 0.01 | 59 | 1013.3 |
| 20260510022120 | 67 | 200 | 0.0 | 0.0 | 0.00 | 0.01 | 0.01 | 55 | 1013.6 |
| 20260510021616 | 68 | 186 | 0.0 | 0.0 | 0.00 | 0.01 | 0.01 | 55 | 1013.2 |
| 20260510021114 | 68 | 245 | 0.0 | 0.0 | 0.00 | 0.01 | 0.01 | 54 | 1012.9 |
| 20260510020614 | 68 | 197 | 0.0 | 0.0 | 0.00 | 0.01 | 0.01 | 54 | 1013.0 |
| 20260510020109 | 70 | 188 | 0.0 | 0.0 | 0.00 | 0.01 | 0.01 | 54 | 1012.8 |
| 20260510015606 | 71 | 275 | 0.0 | 0.0 | 0.00 | 0.01 | 0.01 | 50 | 1012.5 |
| 20260510015102 | 71 | 328 | 0.0 | 0.0 | 0.00 | 0.01 | 0.01 | 48 | 1012.7 |
| 20260510014558 | 71 | 303 | 0.0 | 0.0 | 0.00 | 0.01 | 0.01 | 48 | 1012.4 |
| 20260510014056 | 73 | 20 | 0.0 | 0.0 | 0.00 | 0.01 | 0.01 | 47 | 1012.5 |
| 20260510013550 | 72 | 20 | 0.0 | 0.0 | 0.00 | 0.01 | 0.01 | 46 | 1012.6 |
| 20260510013046 | 72 | 15 | 0.0 | 0.0 | 0.00 | 0.01 | 0.01 | 48 | 1012.4 |
| 20260510012545 | 73 | 66 | 0.0 | 0.0 | 0.00 | 0.01 | 0.01 | 48 | 1012.4 |
| 20260510012042 | 73 | 352 | 0.0 | 0.0 | 0.00 | 0.01 | 0.01 | 47 | 1012.2 |
| 20260510011542 | 73 | 28 | 0.0 | 0.0 | 0.00 | 0.01 | 0.01 | 47 | 1012.2 |
| 20260510011038 | 73 | 355 | 0.0 | 0.0 | 0.00 | 0.01 | 0.01 | 50 | 1012.4 |
| 20260510010535 | 73 | 321 | 0.0 | 0.0 | 0.00 | 0.01 | 0.01 | 49 | 1012.2 |
| 20260510010032 | 74 | 348 | 0.0 | 0.0 | 0.00 | 0.01 | 0.01 | 47 | 1012.2 |
| 20260510005527 | 75 | 22 | 0.0 | 0.0 | 0.00 | 0.01 | 0.01 | 45 | 1012.2 |
| 20260510005025 | 75 | 51 | 0.0 | 0.0 | 0.00 | 0.01 | 0.01 | 45 | 1012.1 |
| 20260510004522 | 76 | 106 | 0.0 | 0.0 | 0.00 | 0.01 | 0.01 | 45 | 1012.1 |
| 20260510004021 | 76 | 90 | 0.0 | 0.0 | 0.00 | 0.01 | 0.01 | 44 | 1012.0 |
| 20260510003517 | 76 | 100 | 0.0 | 0.0 | 0.00 | 0.01 | 0.01 | 45 | 1012.1 |
| 20260510003012 | 76 | 82 | 0.0 | 0.0 | 0.00 | 0.01 | 0.01 | 45 | 1012.1 |
| 20260510002508 | 76 | 94 | 0.0 | 0.0 | 0.00 | 0.01 | 0.01 | 46 | 1012.0 |
| 20260510002005 | 76 | 70 | 0.0 | 0.0 | 0.00 | 0.01 | 0.01 | 47 | 1011.9 |
| 20260510001503 | 77 | 76 | 0.0 | 0.0 | 0.00 | 0.01 | 0.01 | 45 | 1011.8 |
| 20260510001001 | 77 | 75 | 0.0 | 0.0 | 0.00 | 0.01 | 0.01 | 46 | 1011.9 |
| 20260510000456 | 77 | 85 | 0.0 | 0.0 | 0.00 | 0.01 | 0.01 | 45 | 1011.8 |
| 20260509235952 | 77 | 84 | 0.0 | 0.0 | 0.00 | 0.01 | 0.01 | 45 | 1011.7 |
| 20260509235449 | 77 | 88 | 0.0 | 0.0 | 0.00 | 0.01 | 0.01 | 47 | 1012.0 |
| 20260509234945 | 78 | 84 | 0.0 | 0.0 | 0.00 | 0.01 | 0.01 | 45 | 1011.9 |
| 20260509234442 | 78 | 60 | 0.0 | 0.9 | 0.00 | 0.01 | 0.01 | 45 | 1011.9 |
| 20260509233940 | 78 | 69 | 0.9 | 1.7 | 0.00 | 0.01 | 0.01 | 44 | 1012.1 |
| 20260509233438 | 79 | 75 | 0.0 | 0.9 | 0.00 | 0.01 | 0.01 | 45 | 1012.0 |
| 20260509232933 | 79 | 89 | 0.0 | 0.0 | 0.00 | 0.01 | 0.01 | 41 | 1011.9 |
| 20260509232432 | 79 | 65 | 0.0 | 0.9 | 0.00 | 0.01 | 0.01 | 41 | 1012.0 |
| 20260509231927 | 79 | 40 | 0.9 | 0.9 | 0.00 | 0.01 | 0.01 | 44 | 1012.0 |
| 20260509231424 | 80 | 62 | 1.7 | 2.6 | 0.00 | 0.01 | 0.01 | 42 | 1012.1 |
| 20260509230922 | 80 | 132 | 0.0 | 0.0 | 0.00 | 0.01 | 0.01 | 41 | 1012.1 |
| 20260509230419 | 80 | 65 | 0.0 | 0.0 | 0.00 | 0.01 | 0.01 | 41 | 1011.9 |
| 20260509225915 | 80 | 63 | 0.0 | 0.0 | 0.00 | 0.01 | 0.01 | 39 | 1012.0 |
| 20260509225411 | 79 | 63 | 0.9 | 0.9 | 0.00 | 0.01 | 0.01 | 37 | 1012.1 |
| 20260509224908 | 79 | 54 | 3.5 | 4.3 | 0.00 | 0.01 | 0.01 | 40 | 1011.7 |
| 20260509224403 | 80 | 72 | 0.9 | 2.6 | 0.00 | 0.01 | 0.01 | 36 | 1011.9 |
| 20260509223901 | 80 | 78 | 1.7 | 5.2 | 0.00 | 0.01 | 0.01 | 36 | 1011.9 |
| 20260509223357 | 80 | 43 | 3.5 | 5.2 | 0.00 | 0.01 | 0.01 | 36 | 1011.8 |
| 20260509222854 | 80 | 87 | 1.7 | 2.6 | 0.00 | 0.01 | 0.01 | 33 | 1011.9 |
| 20260509222349 | 80 | 63 | 0.0 | 0.9 | 0.00 | 0.01 | 0.01 | 38 | 1011.8 |
| 20260509221844 | 80 | 38 | 3.5 | 4.3 | 0.00 | 0.01 | 0.01 | 36 | 1012.0 |
| 20260509221342 | 81 | 17 | 4.3 | 6.1 | 0.00 | 0.01 | 0.01 | 36 | 1011.7 |
| 20260509220837 | 80 | 149 | 2.6 | 2.6 | 0.00 | 0.01 | 0.01 | 34 | 1011.8 |
| 20260509220333 | 82 | 59 | 2.6 | 2.6 | 0.00 | 0.01 | 0.01 | 41 | 1012.0 |
| 20260509215829 | 81 | 52 | 0.9 | 0.9 | 0.00 | 0.01 | 0.01 | 40 | 1011.7 |
| 20260509215326 | 81 | 0 | 1.7 | 1.7 | 0.00 | 0.01 | 0.01 | 33 | 1011.8 |
| 20260509214823 | 81 | 25 | 0.0 | 1.7 | 0.00 | 0.01 | 0.01 | 36 | 1011.8 |
| 20260509214320 | 80 | 78 | 0.0 | 0.9 | 0.00 | 0.01 | 0.01 | 39 | 1011.8 |
| 20260509213817 | 81 | 74 | 0.0 | 0.9 | 0.00 | 0.01 | 0.01 | 39 | 1012.1 |
| 20260509213312 | 80 | 54 | 1.7 | 5.2 | 0.00 | 0.01 | 0.01 | 38 | 1011.8 |
| 20260509212810 | 80 | 53 | 1.7 | 6.1 | 0.00 | 0.01 | 0.01 | 37 | 1011.9 |
| 20260509212308 | 80 | 72 | 1.7 | 2.6 | 0.00 | 0.01 | 0.01 | 34 | 1011.9 |
| 20260509211803 | 81 | 96 | 6.1 | 6.1 | 0.00 | 0.01 | 0.01 | 37 | 1011.7 |
| 20260509211259 | 81 | 219 | 2.6 | 2.6 | 0.00 | 0.01 | 0.01 | 33 | 1011.8 |
| 20260509210756 | 80 | 121 | 1.7 | 2.6 | 0.00 | 0.01 | 0.01 | 35 | 1012.0 |
| 20260509210254 | 81 | 168 | 4.3 | 5.2 | 0.00 | 0.01 | 0.01 | 36 | 1012.0 |
| 20260509205753 | 84 | 151 | 1.7 | 1.7 | 0.00 | 0.01 | 0.01 | 35 | 1012.1 |
| 20260509205248 | 81 | 166 | 0.0 | 0.0 | 0.00 | 0.01 | 0.01 | 33 | 1012.0 |
| 20260509204744 | 81 | 93 | 0.0 | 0.0 | 0.00 | 0.01 | 0.01 | 39 | 1012.0 |
| 20260509204241 | 80 | 117 | 1.7 | 2.6 | 0.00 | 0.01 | 0.01 | 36 | 1012.2 |
| 20260509203737 | 81 | 68 | 1.7 | 2.6 | 0.00 | 0.01 | 0.01 | 39 | 1012.5 |
| 20260509203235 | 80 | 75 | 0.9 | 2.6 | 0.00 | 0.01 | 0.01 | 37 | 1012.1 |
| 20260509202730 | 80 | 122 | 2.6 | 2.6 | 0.00 | 0.01 | 0.01 | 38 | 1012.3 |
| 20260509202227 | 80 | 176 | 1.7 | 1.7 | 0.00 | 0.01 | 0.01 | 34 | 1012.4 |
| 20260509201721 | 80 | 155 | 0.0 | 0.0 | 0.00 | 0.01 | 0.01 | 35 | 1012.5 |
| 20260509201218 | 80 | 56 | 0.9 | 2.6 | 0.00 | 0.01 | 0.01 | 39 | 1012.5 |
| 20260509200714 | 80 | 117 | 7.0 | 8.7 | 0.00 | 0.01 | 0.01 | 38 | 1012.4 |
| 20260509200209 | 80 | 78 | 4.3 | 7.0 | 0.00 | 0.01 | 0.01 | 41 | 1012.5 |
| 20260509195705 | 80 | 119 | 3.5 | 4.3 | 0.00 | 0.01 | 0.01 | 41 | 1012.7 |
| 20260509195201 | 79 | 132 | 4.3 | 5.2 | 0.00 | 0.01 | 0.01 | 38 | 1012.8 |
| 20260509194655 | 81 | 236 | 0.0 | 0.0 | 0.00 | 0.01 | 0.01 | 36 | 1012.6 |
| 20260509194152 | 80 | 73 | 2.6 | 4.3 | 0.00 | 0.01 | 0.01 | 40 | 1012.6 |
| 20260509193648 | 81 | 115 | 5.2 | 7.0 | 0.00 | 0.01 | 0.01 | 40 | 1012.6 |
| 20260509193143 | 81 | 74 | 0.0 | 0.9 | 0.00 | 0.01 | 0.01 | 36 | 1012.8 |
| 20260509192640 | 79 | 86 | 0.0 | 0.0 | 0.00 | 0.01 | 0.01 | 41 | 1012.9 |
| 20260509192136 | 80 | 120 | 1.7 | 4.3 | 0.00 | 0.01 | 0.01 | 36 | 1012.7 |
| 20260509191635 | 79 | 88 | 1.7 | 2.6 | 0.00 | 0.01 | 0.01 | 42 | 1012.7 |
| 20260509191132 | 80 | 108 | 0.9 | 1.7 | 0.00 | 0.01 | 0.01 | 45 | 1012.8 |
| 20260509190629 | 80 | 250 | 0.0 | 0.0 | 0.00 | 0.01 | 0.01 | 35 | 1012.7 |
| 20260509190126 | 80 | 251 | 5.2 | 7.0 | 0.00 | 0.01 | 0.01 | 37 | 1012.7 |
| 20260509185624 | 79 | 177 | 0.0 | 0.0 | 0.00 | 0.01 | 0.01 | 43 | 1012.7 |
| 20260509185120 | 79 | 63 | 2.6 | 5.2 | 0.00 | 0.01 | 0.01 | 37 | 1012.7 |
| 20260509184618 | 78 | 65 | 0.9 | 1.7 | 0.00 | 0.01 | 0.01 | 38 | 1012.8 |
| 20260509184114 | 79 | 148 | 3.5 | 4.3 | 0.00 | 0.01 | 0.01 | 40 | 1013.0 |
| 20260509183610 | 79 | 80 | 0.0 | 0.0 | 0.00 | 0.01 | 0.01 | 36 | 1012.7 |
| 20260509183106 | 80 | 120 | 5.2 | 6.1 | 0.00 | 0.01 | 0.01 | 38 | 1012.8 |
| 20260509182602 | 80 | 187 | 0.0 | 0.0 | 0.00 | 0.01 | 0.01 | 37 | 1012.7 |
| 20260509182059 | 79 | 96 | 0.9 | 1.7 | 0.00 | 0.01 | 0.01 | 40 | 1012.7 |
| 20260509181558 | 79 | 139 | 1.7 | 1.7 | 0.00 | 0.01 | 0.01 | 43 | 1012.7 |
| 20260509181054 | 80 | 179 | 0.0 | 0.0 | 0.00 | 0.01 | 0.01 | 38 | 1012.8 |
| 20260509180550 | 78 | 234 | 0.0 | 0.0 | 0.00 | 0.01 | 0.01 | 40 | 1013.0 |